Karolis Mikoliunas

Scout - Atlantas
3 Dez 2028
Sonntag
Verarbeitung

Persönlichkeit

Anpassungsfähigkeit (14) Ehrgeiz (16) Kontroverse (3) Loyalität (14) Druck (12) Professionalität (15) Fairness (1) Temperament (18)

Profil

Trainerstil Demokratisch
Lizenz Kontinentale Pro
Entschlossenheit 7
Menschenführung 5
Motivation 3
Disziplin 3
Arbeitszufriedenheit
100%
Ermüdung
0%
Rolle Scout
Gehalt 39.2K p/W
Vertrag 14.03.2030

Leistung

Verhalten Gut
Trainingseffektivität
20%
Spielerentwicklung
35%
Verletzungsprävention
40%
Taktische Umsetzung
25%

Letzte Ereignisse

Nahm an einer Scouting-Besprechung teil 7T her
Nahm an einer Scouting-Besprechung teil 14T her
Nahm an einer Scouting-Besprechung teil 21T her
Nahm an einer Scouting-Besprechung teil 28T her
Nahm an einer Scouting-Besprechung teil 35T her
Nahm an einer Scouting-Besprechung teil 42T her
Nahm an einer Scouting-Besprechung teil 49T her
Nahm an einer Scouting-Besprechung teil 56T her

Aktuell beobachtet

96
Spieler Verein Status Fähigkeit Vertrauen Beobachtet Zuletzt beobachtet Letzte Stimme
Louis Flower Crawley Town Aktiv 100 / 91 40% 1 01.06.2028 -
Aleksej Golijanin Sokol Aktiv 94 / 94 40% 1 01.06.2028 -
Ilja Safronov Rotor Aktiv 115 / 99 40% 2 31.05.2028 -
Artur Murza Volga Aktiv 88 / 86 40% 1 31.05.2028 -
Emanuele Schimmenti Potenza Aktiv 116 / 111 40% 1 31.05.2028 -
Igor Tyjon Barrow AFC Aktiv 111 / 109 40% 1 31.05.2028 -
Soslan Lysenko Spartak Nalchik Aktiv 93 / 71 40% 1 02.01.2028 -
Matija Popović Fakel Aktiv 122 / 101 40% 1 02.01.2028 -
Georgy Gongadze Ufa Aktiv 92 / 93 40% 1 31.12.2027 -
Marco Miori Alvarado Aktiv 104 / 134 40% 3 30.12.2027 -
Sebastián Cocimano Nueva Chicago Aktiv 122 / 132 40% 6 29.12.2027 -
Lautaro Disanto Defensores Unidos Aktiv 127 / 90 40% 4 29.12.2027 -
Facundo Krüger Temperley Aktiv 112 / 137 40% 1 29.12.2027 -
Gianluca Pugliese Güemes Aktiv 112 / 88 40% 8 28.12.2027 -
Diego Gaitán Maipú Aktiv 98 / 94 40% 2 28.12.2027 -
Fernando Bersano Madryn Aktiv 126 / 112 40% 3 27.12.2027 -
Tosin Olawale El-Kanemi Warriors Aktiv 92 / 103 40% 1 27.12.2027 -
Steven Alfred Torpedo-BelAZ Aktiv 105 / 103 40% 4 26.12.2027 -
Franco Díaz Temperley Aktiv 117 / 136 40% 2 26.12.2027 -
Ramón González Almirante Brown Aktiv 130 / 94 40% 2 26.12.2027 -
Martín Campos Ferro Carril Oeste Aktiv 114 / 131 40% 3 25.12.2027 -
Antonio Napolitano Agropecuario Argentino Aktiv 131 / 130 40% 1 25.12.2027 -
Alexandr Lomovitskiy Torpedo-BelAZ Aktiv 118 / 104 40% 2 24.12.2027 -
Sergio González Racing Aktiv 114 / 121 40% 1 23.12.2027 -
Alexandr Ksenofontov Minsk Aktiv 106 / 81 40% 3 21.12.2027 -
Alejo Dramisino Atlanta Aktiv 104 / 115 40% 2 21.12.2027 -
Germán Cervera Alvarado Aktiv 87 / 110 40% 1 21.12.2027 -
Juan Mendoza Güemes Aktiv 99 / 114 40% 2 19.12.2027 -
Kirill Tsepenkov Dnepr Mogilev Aktiv 110 / 114 40% 2 18.12.2027 -
David Veliz Güemes Aktiv 105 / 102 40% 2 18.12.2027 -
Enzo González Defensores Aktiv 94 / 105 40% 1 17.12.2027 -
Alfred Mazurich Lida Aktiv 89 / 107 40% 2 16.12.2027 -
Matías Samaniego Talleres Aktiv 94 / 122 40% 4 16.12.2027 -
Iñaki Larthirigoyen San Telmo Aktiv 114 / 142 40% 2 16.12.2027 -
Patricio Moyano Defensores Aktiv 105 / 129 40% 2 13.12.2027 -
Santiago Sala Güemes Aktiv 131 / 108 40% 5 12.12.2027 -
Enzo Trinidad Colegiales Aktiv 103 / 134 40% 2 12.12.2027 -
Maksim Chalavach Lokomotiv Gomel Aktiv 65 / 75 40% 1 12.12.2027 -
Lautaro Gordillo Colegiales Aktiv 129 / 107 40% 3 11.12.2027 -
Octavio Bianchi Gimnasia y Esgrima Aktiv 98 / 111 40% 1 10.12.2027 -
Magomed Nasibov Pobeda Aktiv 80 / 88 40% 1 10.12.2027 -
Favio Cabral Mitre Aktiv 111 / 117 40% 7 08.12.2027 -
Franco Ayunta Temperley Aktiv 97 / 99 40% 1 08.12.2027 -
Luca Franco Arsenal Aktiv 96 / 100 40% 4 05.12.2027 -
Alexey Antilevskiy Slavia Mozyr Aktiv 104 / 97 40% 4 05.12.2027 -
Johan Campaña Patriotas Aktiv 123 / 104 40% 3 05.12.2027 -
Santiago Camacho Estudiantes Aktiv 116 / 98 40% 1 03.12.2027 -
Augusto Berrondo Tristán Suárez Aktiv 124 / 108 40% 5 01.12.2027 -
Hleb Shikavka Lokomotiv Gomel Aktiv 74 / 88 40% 1 01.12.2027 -
Tobías Cervera Gimnasia y Esgrima Aktiv 116 / 104 40% 2 30.11.2027 -
Maxim Maximov Slavia Mozyr Aktiv 87 / 80 40% 2 30.11.2027 -
Kirill Zabelin Dnepr Mogilev Aktiv 91 / 97 40% 2 28.11.2027 -
Daniil Motorin Rubin Aktiv 87 / 100 40% 1 28.11.2027 -
Rodrigo González Mitre Aktiv 117 / 136 40% 3 27.11.2027 -
Timofey Simanenka Gomel Aktiv 91 / 109 40% 1 27.11.2027 -
José Barreto Quilmes Aktiv 98 / 123 40% 6 26.11.2027 -
Daouda Natama Minsk Aktiv 81 / 89 40% 4 24.11.2027 -
Juan David Rueda Alianza Petrolera Aktiv 111 / 127 40% 2 24.11.2027 -
Facundo Lencioni Gimnasia y Esgrima Aktiv 125 / 113 40% 2 23.11.2027 -
Facundo Taborda Racing Aktiv 110 / 117 40% 1 23.11.2027 -
Franco Vedoya Central Norte Aktiv 133 / 94 40% 2 22.11.2027 -
Alan Bonansea Colón Aktiv 93 / 105 40% 2 21.11.2027 -
Tomás Porra Barracas Central Aktiv 129 / 119 40% 1 21.11.2027 -
Maico Quiroz Güemes Aktiv 114 / 124 40% 2 20.11.2027 -
Mario Sanabria Chacarita Juniors Aktiv 109 / 128 40% 1 20.11.2027 -
Mauro Valiente Estudiantes Aktiv 102 / 133 40% 1 18.11.2027 -
Lisandro Cabrera Maipú Aktiv 113 / 136 40% 3 17.11.2027 -
Miro Arsenal Tula Aktiv 109 / 132 40% 1 17.11.2027 -
Pedro Souto Temperley Aktiv 129 / 135 40% 2 15.11.2027 -
Nicolás Mosca Atlanta Aktiv 123 / 89 40% 1 12.11.2027 -
Oscar Garrido Mitre Aktiv 121 / 124 40% 1 05.11.2027 -
Yeferson Rodallega Envigado Aktiv 100 / 117 40% 1 04.11.2027 -
Augustine Nwaorisa Enyimba Aktiv 93 / 77 40% 1 01.11.2027 -
Alexandr Butko Isloch Aktiv 96 / 69 40% 1 31.10.2027 -
Kirill Leonovich Gomel Aktiv 90 / 82 40% 1 30.10.2027 -
Federico Versaci Talleres Aktiv 121 / 105 40% 1 28.10.2027 -
Maximiliano Rueda Patronato Aktiv 107 / 128 40% 1 26.10.2027 -
Agustín Lavezzi Quilmes Aktiv 97 / 94 40% 1 21.10.2027 -
Nicolás Retamar Ferro Carril Oeste Aktiv 122 / 97 40% 2 15.10.2027 -
Igor Monich Naftan Aktiv 91 / 96 40% 1 13.10.2027 -
Leandro Allende Colón Aktiv 123 / 90 40% 1 13.10.2027 -
Lautaro Núñez Alvarado Aktiv 110 / 95 40% 1 11.10.2027 -
Vladislav Fedosov Slutsk Aktiv 98 / 85 40% 1 09.10.2027 -
Junior Paredes Trujillanos Aktiv 93 / 123 40% 1 12.09.2027 -
Víctor Rivero Aragua Aktiv 114 / 85 40% 1 09.09.2027 -
José Rivas Gamboa Trujillanos Aktiv 103 / 84 40% 1 08.09.2027 -
Brian Farioli Estudiantes Aktiv 127 / 122 40% 1 06.09.2027 -
Timur Pukhov Baranovichi Aktiv 82 / 82 40% 1 06.09.2027 -
Daniil Penchikov Arsenal Tula Aktiv 101 / 94 40% 1 31.05.2027 -
Konstantin Kertanov Chelyabinsk Aktiv 99 / 92 40% 1 31.05.2027 -
Sergey Gaiduk Salyut Aktiv 72 / 89 40% 1 31.05.2027 -
Vykintas Paulauskas Utenis Aktiv 75 / 72 51% 1 25.01.2027 -
Andrey Okladnikov Yenisey Aktiv 87 / 92 40% 1 31.12.2026 -
Migran Ageyan Ufa Aktiv 102 / 83 40% 1 31.12.2026 -
Tomas Klimavicius Stumbras Aktiv 80 / 57 51% 1 10.08.2026 -
Abu-Said Eldarushev Rotor Aktiv 91 / 99 40% 1 02.08.2026 -